This is the latest recevied weather packets stored in our database for station/object G4WLC-1. If no packets are shown the sender has not sent any weather packets the latest 10 day(s).
| Time | Temp. | Humidity | Pressure | Rain* | Wind** | Luminosity | Snow |
|---|---|---|---|---|---|---|---|
| 1787836344 | 19.44° C | 91% | 1007.2 hPa | 0.51 mm | - | - | - |
| 1787836044 | 19.44° C | 91% | 1007.1 hPa | 0.51 mm | - | - | - |
| 1787835744 | 19.44° C | 91% | 1007 hPa | 0.51 mm | - | - | - |
| 1787835444 | 19.44° C | 91% | 1007.1 hPa | 0.51 mm | - | - | - |
| 1787835144 | 20° C | 90% | 1007.2 hPa | 0.25 mm | - | - | - |
| 1787834844 | 20° C | 91% | 1007.2 hPa | 0.25 mm | - | - | - |
| 1787834543 | 20° C | 91% | 1007.4 hPa | 1.02 mm | - | - | - |
| 1787834244 | 20° C | 91% | 1007.1 hPa | 1.02 mm | - | - | - |
| 1787833944 | 20° C | 92% | 1007.3 hPa | 1.02 mm | - | - | - |
| 1787833644 | 20° C | 92% | 1007.4 hPa | 1.02 mm | - | - | - |
| 1787833344 | 20° C | 92% | 1007.3 hPa | 1.02 mm | - | - | - |
| 1787833044 | 19.44° C | 93% | 1007.3 hPa | 1.02 mm | - | - | - |
| 1787832744 | 19.44° C | 93% | 1007.2 hPa | 1.02 mm | - | - | - |
| 1787832444 | 19.44° C | 93% | 1007.3 hPa | 1.02 mm | - | - | - |
| 1787832144 | 18.89° C | 93% | 1007.2 hPa | 1.02 mm | - | - | - |
| 1787831544 | 18.89° C | 92% | 1007.4 hPa | 0.76 mm | - | - | - |
| 1787831244 | 18.89° C | 92% | 1007.5 hPa | 0.76 mm | - | - | - |
| 1787830644 | 18.89° C | 93% | 1007.4 hPa | 0 mm | - | - | - |
| 1787830344 | 18.33° C | 92% | 1007.6 hPa | 0 mm | - | - | - |
| 1787830044 | 18.33° C | 93% | 1007.7 hPa | 0 mm | - | - | - |
| 1787829744 | 18.33° C | 92% | 1007.5 hPa | 0 mm | - | - | - |
| 1787829444 | 18.33° C | 92% | 1007.6 hPa | 0 mm | - | - | - |
| 1787829144 | 18.33° C | 92% | 1007.7 hPa | 0 mm | - | - | - |
| 1787828844 | 18.89° C | 93% | 1007.6 hPa | 0 mm | - | - | - |
| 1787828544 | 18.33° C | 93% | 1007.5 hPa | 0 mm | - | - | - |
* Rain latest hour (hover to see other rain measurements)
** Current wind speed in m/s (hover to see current wind gust speed)